When you browse on this site, cookies collect data to enhance your experience and personalize the content and advertising you see.
Visit our Privacy Policy to learn more. By continuing to use the site, you agree to this use of cookies and data.
  • en Suisse
  • Liste des pays
  • À 7 jours
  • Température de l'eau
  • Carte météo
  • Widgets météo
  • user-avatar
    Se connecter

    Météo par heure à Hartford

    Ce jour, 17 Septembre, Mardi

    Heure Température Précipitation Vent Pression Humidité
    00:00 +10°C° 0 mm 3 m/s 765 mmHg 85%
    01:00 +10°C° 0 mm 3 m/s 765 mmHg 86%
    02:00 +10°C° 0 mm 3 m/s 765 mmHg 86%
    03:00 +10°C° 0 mm 2 m/s 765 mmHg 86%
    04:00 +10°C° 0 mm 3 m/s 765 mmHg 84%
    05:00 +10°C° 0 mm 3 m/s 765 mmHg 82%
    06:00 +10°C° 0 mm 3 m/s 765 mmHg 80%
    07:00 +11°C° 0 mm 3 m/s 765 mmHg 76%
    08:00 +12°C° 0 mm 4 m/s 766 mmHg 72%
    09:00 +13°C° 0 mm 4 m/s 766 mmHg 68%
    10:00 +14°C° 0 mm 4 m/s 766 mmHg 65%
    11:00 +14°C° 0 mm 4 m/s 766 mmHg 63%
    12:00 +15°C° 0 mm 4 m/s 766 mmHg 60%
    13:00 +15°C° 0 mm 4 m/s 766 mmHg 59%
    14:00 +15°C° 0 mm 4 m/s 766 mmHg 58%
    15:00 +16°C° 0 mm 3 m/s 766 mmHg 57%
    16:00 +14°C° 0 mm 3 m/s 766 mmHg 61%
    17:00 +13°C° 0 mm 3 m/s 766 mmHg 66%
    18:00 +13°C° 0 mm 2 m/s 766 mmHg 70%
    19:00 +12°C° 0 mm 2 m/s 767 mmHg 72%
    20:00 +12°C° 0 mm 1 m/s 768 mmHg 74%
    21:00 +11°C° 0 mm 1 m/s 768 mmHg 75%
    22:00 +10°C° 0 mm 1 m/s 768 mmHg 76%
    23:00 +10°C° 0 mm 1 m/s 768 mmHg 77%

    Demain, 18 Septembre, Mercredi

    Heure Température Précipitation Vent Pression Humidité
    00:00 +9°C° 0 mm 1 m/s 768 mmHg 78%
    01:00 +9°C° 0 mm 1 m/s 768 mmHg 79%
    02:00 +9°C° 0 mm 1 m/s 769 mmHg 79%
    03:00 +9°C° 0 mm 1 m/s 769 mmHg 80%
    04:00 +8°C° 0 mm 1 m/s 769 mmHg 81%
    05:00 +8°C° 0 mm 1 m/s 769 mmHg 82%
    06:00 +8°C° 0 mm 1 m/s 769 mmHg 83%
    07:00 +10°C° 0 mm 1 m/s 769 mmHg 79%
    08:00 +11°C° 0 mm 1 m/s 769 mmHg 74%
    09:00 +13°C° 0 mm 1 m/s 769 mmHg 70%
    10:00 +14°C° 0 mm 1 m/s 769 mmHg 65%
    11:00 +16°C° 0 mm 1 m/s 769 mmHg 61%
    12:00 +18°C° 0 mm 1 m/s 769 mmHg 57%
    13:00 +17°C° 0 mm 2 m/s 769 mmHg 57%
    14:00 +17°C° 0 mm 2 m/s 769 mmHg 57%
    15:00 +18°C° 0 mm 3 m/s 769 mmHg 57%
    16:00 +16°C° 0 mm 3 m/s 768 mmHg 61%
    17:00 +15°C° 0 mm 2 m/s 768 mmHg 65%
    18:00 +14°C° 0 mm 2 m/s 768 mmHg 70%
    19:00 +13°C° 0 mm 2 m/s 769 mmHg 73%
    20:00 +12°C° 0 mm 2 m/s 769 mmHg 77%
    21:00 +12°C° 0 mm 1 m/s 769 mmHg 80%
    22:00 +11°C° 0 mm 1 m/s 769 mmHg 83%
    23:00 +11°C° 0 mm 1 m/s 769 mmHg 85%

    Après-demain, 19 Septembre, Jeudi

    Heure Température Précipitation Vent Pression Humidité
    00:00 +11°C° 0 mm 1 m/s 769 mmHg 87%
    01:00 +11°C° 0 mm 1 m/s 769 mmHg 88%
    02:00 +11°C° 0 mm 1 m/s 769 mmHg 88%
    03:00 +10°C° 0 mm 1 m/s 769 mmHg 89%
    04:00 +9°C° 0 mm 0 m/s 769 mmHg 89%
    05:00 +9°C° 0 mm 0 m/s 769 mmHg 89%
    06:00 +9°C° 0 mm 0 m/s 769 mmHg 90%
    07:00 +11°C° 0 mm 0 m/s 770 mmHg 85%
    08:00 +12°C° 0 mm 0 m/s 770 mmHg 80%
    09:00 +14°C° 0 mm 0 m/s 770 mmHg 76%
    10:00 +15°C° 0 mm 0 m/s 770 mmHg 71%
    11:00 +17°C° 0 mm 0 m/s 770 mmHg 67%
    12:00 +18°C° 0 mm 0 m/s 770 mmHg 63%
    13:00 +19°C° 0 mm 0 m/s 769 mmHg 61%
    14:00 +21°C° 0 mm 1 m/s 769 mmHg 60%
    15:00 +21°C° 0 mm 1 m/s 769 mmHg 59%
    16:00 +20°C° 0 mm 1 m/s 769 mmHg 65%
    17:00 +19°C° 0 mm 1 m/s 769 mmHg 71%
    18:00 +16°C° 0 mm 1 m/s 769 mmHg 76%
    19:00 +16°C° 0 mm 1 m/s 769 mmHg 79%
    20:00 +14°C° 0 mm 0 m/s 769 mmHg 82%
    21:00 +13°C° 0 mm 0 m/s 769 mmHg 84%
    22:00 +13°C° 0 mm 0 m/s 769 mmHg 85%
    23:00 +14°C° 0 mm 1 m/s 769 mmHg 85%

    20 Septembre, Vendredi

    Heure Température Précipitation Vent Pression Humidité
    00:00 +13°C° 0 mm 1 m/s 768 mmHg 86%
    01:00 +13°C° 0 mm 1 m/s 768 mmHg 86%
    02:00 +13°C° 0 mm 1 m/s 768 mmHg 86%
    03:00 +12°C° 0 mm 1 m/s 768 mmHg 87%
    04:00 +12°C° 0 mm 2 m/s 768 mmHg 87%
    05:00 +12°C° 0 mm 2 m/s 767 mmHg 88%
    06:00 +12°C° 0 mm 2 m/s 767 mmHg 88%
    07:00 +13°C° 0 mm 2 m/s 767 mmHg 84%
    08:00 +14°C° 0 mm 3 m/s 767 mmHg 79%
    09:00 +16°C° 0 mm 3 m/s 766 mmHg 74%
    10:00 +17°C° 0 mm 4 m/s 766 mmHg 70%
    11:00 +18°C° 0 mm 4 m/s 766 mmHg 67%
    12:00 +19°C° 0 mm 5 m/s 765 mmHg 63%
    13:00 +20°C° 0 mm 5 m/s 765 mmHg 63%
    14:00 +20°C° 0 mm 5 m/s 764 mmHg 63%
    15:00 +20°C° 0 mm 5 m/s 763 mmHg 62%
    16:00 +19°C° 0 mm 5 m/s 763 mmHg 66%
    17:00 +18°C° 0 mm 4 m/s 762 mmHg 70%
    18:00 +17°C° 0 mm 4 m/s 762 mmHg 73%
    19:00 +15°C° 0 mm 5 m/s 762 mmHg 70%
    20:00 +15°C° 0 mm 5 m/s 761 mmHg 66%
    21:00 +14°C° 0 mm 6 m/s 761 mmHg 63%
    22:00 +13°C° 0 mm 6 m/s 761 mmHg 66%
    23:00 +13°C° 0 mm 6 m/s 760 mmHg 68%

    21 Septembre, Samedi

    Heure Température Précipitation Vent Pression Humidité
    00:00 +11°C° 0 mm 6 m/s 760 mmHg 71%
    01:00 +11°C° 0 mm 6 m/s 759 mmHg 71%
    02:00 +11°C° 0 mm 6 m/s 759 mmHg 71%
    03:00 +12°C° 0 mm 5 m/s 758 mmHg 71%
    04:00 +12°C° 0 mm 5 m/s 757 mmHg 70%
    05:00 +12°C° 0 mm 5 m/s 757 mmHg 69%
    06:00 +10°C° 0 mm 5 m/s 756 mmHg 69%
    07:00 +11°C° 0 mm 6 m/s 756 mmHg 67%
    08:00 +13°C° 0 mm 6 m/s 756 mmHg 65%
    09:00 +14°C° 0 mm 6 m/s 755 mmHg 63%
    10:00 +16°C° 0 mm 6 m/s 755 mmHg 61%
    11:00 +17°C° 0 mm 6 m/s 754 mmHg 59%
    12:00 +19°C° 0 mm 6 m/s 754 mmHg 57%
    13:00 +20°C° 0 mm 6 m/s 753 mmHg 58%
    14:00 +21°C° 0 mm 6 m/s 753 mmHg 59%
    15:00 +21°C° 0 mm 6 m/s 752 mmHg 60%
    16:00 +21°C° 0.1 mm 5 m/s 752 mmHg 67%
    17:00 +20°C° 0.1 mm 5 m/s 752 mmHg 74%
    18:00 +19°C° 0.1 mm 4 m/s 752 mmHg 81%
    19:00 +19°C° 0.1 mm 4 m/s 752 mmHg 84%
    20:00 +18°C° 0.1 mm 4 m/s 752 mmHg 87%
    21:00 +18°C° 0.1 mm 4 m/s 752 mmHg 90%
    22:00 +17°C° 0 mm 4 m/s 751 mmHg 90%
    23:00 +17°C° 0 mm 4 m/s 751 mmHg 91%

    22 Septembre, Dimanche

    Heure Température Précipitation Vent Pression Humidité
    00:00 +17°C° 0 mm 4 m/s 751 mmHg 91%
    01:00 +17°C° 0 mm 4 m/s 751 mmHg 91%
    02:00 +16°C° 0 mm 5 m/s 751 mmHg 90%
    03:00 +15°C° 0 mm 5 m/s 751 mmHg 90%
    04:00 +15°C° 0 mm 5 m/s 751 mmHg 91%
    05:00 +15°C° 0 mm 4 m/s 752 mmHg 92%
    06:00 +15°C° 0 mm 4 m/s 752 mmHg 92%
    07:00 +17°C° 0 mm 4 m/s 752 mmHg 87%
    08:00 +16°C° 0 mm 5 m/s 752 mmHg 82%
    09:00 +17°C° 0 mm 6 m/s 752 mmHg 77%
    10:00 +17°C° 0 mm 5 m/s 753 mmHg 73%
    11:00 +19°C° 0 mm 5 m/s 753 mmHg 68%
    12:00 +20°C° 0 mm 5 m/s 753 mmHg 64%
    13:00 +20°C° 0 mm 5 m/s 753 mmHg 63%
    14:00 +20°C° 0 mm 5 m/s 753 mmHg 61%
    15:00 +20°C° 0 mm 5 m/s 753 mmHg 59%
    16:00 +18°C° 0.1 mm 4 m/s 754 mmHg 64%
    17:00 +17°C° 0.1 mm 4 m/s 754 mmHg 69%
    18:00 +16°C° 0.1 mm 3 m/s 754 mmHg 74%
    19:00 +14°C° 0 mm 3 m/s 755 mmHg 77%
    20:00 +13°C° 0 mm 3 m/s 755 mmHg 81%
    21:00 +12°C° 0 mm 3 m/s 756 mmHg 85%
    22:00 +12°C° 0 mm 3 m/s 756 mmHg 86%
    23:00 +11°C° 0 mm 3 m/s 756 mmHg 87%
    Voir plus